XBFGP MMVR-MMPB

Flight info

Callsign XBFGP
Flight time N/A
Altitude 16500
Route MMVR DCT MMPB
Aircraft TBM9/L-V/N

Departure

Time 2026-04-21 17:43
Airport General Heriberto Jara International Airport (MMVR)

Arrival

Time N/A
Airport Hermanos Serdán International Airport (MMPB)
Time Latitude Longitude Altitude Speed Heading
2026-04-21 17:38 19.14261 -96.18436 80 ft 0 kts 96°
2026-04-21 17:40 19.14262 -96.18438 80 ft 4 kts 95°
2026-04-21 17:40 19.14274 -96.18487 83 ft 5 kts 200°
2026-04-21 17:40 19.14215 -96.18547 81 ft 30 kts 257°
2026-04-21 17:40 19.14004 -96.18802 82 ft 47 kts 221°
2026-04-21 17:41 19.13971 -96.18862 82 ft 0 kts 354°
2026-04-21 17:42 19.14097 -96.18837 85 ft 47 kts
2026-04-21 17:42 19.14573 -96.18740 78 ft 89 kts 11°
2026-04-21 17:42 19.15238 -96.18610 205 ft 98 kts 11°
2026-04-21 17:42 19.15998 -96.18476 333 ft 132 kts
2026-04-21 17:43 19.17073 -96.18301 472 ft 173 kts 12°
2026-04-21 17:43 19.18301 -96.17991 908 ft 188 kts 13°
2026-04-21 17:43 19.19624 -96.18152 1363 ft 202 kts 335°
2026-04-21 17:43 19.20639 -96.19202 1826 ft 217 kts 300°
2026-04-21 17:44 19.21003 -96.20813 2285 ft 230 kts 274°
2026-04-21 17:44 19.21023 -96.22470 2755 ft 227 kts 270°
2026-04-21 17:44 19.21013 -96.24127 3389 ft 218 kts 270°
2026-04-21 17:44 19.20998 -96.25683 4001 ft 211 kts 270°
2026-04-21 17:45 19.20983 -96.27216 4635 ft 205 kts 270°
2026-04-21 17:45 19.20972 -96.28712 5261 ft 200 kts 270°
2026-04-21 17:45 19.20963 -96.30172 5877 ft 197 kts 270°
2026-04-21 17:45 19.20956 -96.31609 6506 ft 194 kts 270°
2026-04-21 17:46 19.20950 -96.33023 7103 ft 191 kts 270°
2026-04-21 17:46 19.20941 -96.34419 7708 ft 188 kts 270°
2026-04-21 17:46 19.20929 -96.35796 8324 ft 186 kts 270°
2026-04-21 17:46 19.20913 -96.37153 8953 ft 183 kts 270°
2026-04-21 17:47 19.20895 -96.38493 9593 ft 180 kts 270°
2026-04-21 17:47 19.20873 -96.39814 10223 ft 178 kts 270°
2026-04-21 17:47 19.20845 -96.41114 10807 ft 175 kts 270°
2026-04-21 17:47 19.20808 -96.42395 11399 ft 173 kts 270°
2026-04-21 17:48 19.20781 -96.43230 11796 ft 170 kts 270°
2026-04-21 17:48 19.20719 -96.44880 12612 ft 165 kts 270°
2026-04-21 17:48 19.20664 -96.46065 13226 ft 161 kts 270°
2026-04-21 17:48 19.20600 -96.47247 13866 ft 156 kts 270°
2026-04-21 17:49 19.20530 -96.48351 14428 ft 148 kts 269°
2026-04-21 17:49 19.20466 -96.49401 14998 ft 137 kts 269°
2026-04-21 17:49 19.20406 -96.50354 15560 ft 121 kts 268°
2026-04-21 17:49 19.20351 -96.51162 16086 ft 98 kts 267°
2026-04-21 17:50 19.20343 -96.51857 16072 ft 93 kts 279°
2026-04-21 17:50 19.20721 -96.52661 11019 ft 151 kts 314°
2026-04-21 17:50 19.21778 -96.52875 3395 ft 182 kts 35°
2026-04-21 17:50 19.22104 -96.52341 673 ft 0 kts 77°